�������l�o���
Date,Time,MP-1(��Sv/h),MP-2(��Sv/h),MP-3(��Sv/h),MP-4(��Sv/h),MP-5(��Sv/h),MP-6(��Sv/h),MP-7(��Sv/h),MP-8(��Sv/h),����,����(m/s),���J
2019/08/03,00:00,0.754,1.079,0.736,1.298,0.953,0.431,0.745,0.702,�k,1.4,��
2019/08/03,00:10,0.754,1.079,0.736,1.298,0.955,0.431,0.745,0.703,�k��,1.9,��
2019/08/03,00:20,0.756,1.080,0.735,1.298,0.956,0.432,0.742,0.703,�k��,3.5,��
2019/08/03,00:30,0.755,1.078,0.735,1.297,0.954,0.432,0.745,0.703,�k��,2.0,��
2019/08/03,00:40,0.755,1.081,0.736,1.297,0.955,0.433,0.744,0.703,�k��,2.3,��
2019/08/03,00:50,0.755,1.078,0.736,1.300,0.955,0.431,0.744,0.705,�k��,2.6,��
2019/08/03,01:00,0.754,1.078,0.736,1.297,0.954,0.431,0.744,0.704,�k�k��,3.0,��
2019/08/03,01:10,0.754,1.079,0.734,1.297,0.953,0.431,0.744,0.704,�k�k��,3.1,��
2019/08/03,01:20,0.757,1.079,0.736,1.297,0.951,0.430,0.743,0.704,�k�k��,2.9,��
2019/08/03,01:30,0.754,1.080,0.736,1.297,0.952,0.431,0.746,0.703,�k�k��,3.0,��
2019/08/03,01:40,0.754,1.078,0.735,1.296,0.955,0.430,0.745,0.703,�k,3.2,��
2019/08/03,01:50,0.755,1.080,0.736,1.298,0.954,0.430,0.743,0.704,�k,3.6,��
2019/08/03,02:00,0.754,1.078,0.737,1.299,0.954,0.431,0.744,0.702,�k,3.7,��
2019/08/03,02:10,0.754,1.082,0.735,1.298,0.954,0.430,0.743,0.703,�k,3.8,��
2019/08/03,02:20,0.752,1.076,0.736,1.298,0.952,0.430,0.743,0.703,�k,3.6,��
2019/08/03,02:30,0.757,1.077,0.734,1.296,0.952,0.431,0.745,0.704,�k�k��,2.5,��
2019/08/03,02:40,0.754,1.078,0.735,1.298,0.956,0.431,0.742,0.704,�k�k��,2.3,��
2019/08/03,02:50,0.754,1.078,0.735,1.298,0.955,0.430,0.742,0.703,�k�k��,2.3,��
2019/08/03,03:00,0.755,1.081,0.735,1.297,0.953,0.431,0.744,0.704,�k�k��,1.4,��
2019/08/03,03:10,0.757,1.081,0.735,1.298,0.954,0.431,0.743,0.702,�k,1.7,��
2019/08/03,03:20,0.754,1.081,0.733,1.298,0.953,0.430,0.744,0.703,�k,1.2,��
2019/08/03,03:30,0.754,1.077,0.735,1.297,0.952,0.430,0.743,0.703,-,CALM,��
2019/08/03,03:40,0.754,1.077,0.735,1.297,0.950,0.431,0.743,0.702,-,CALM,��
2019/08/03,03:50,0.755,1.077,0.735,1.301,0.953,0.430,0.741,0.703,�k��,0.6,��
2019/08/03,04:00,0.754,1.081,0.736,1.296,0.954,0.430,0.742,0.704,-,CALM,��
2019/08/03,04:10,0.754,1.078,0.734,1.299,0.953,0.430,0.743,0.704,-,CALM,��
2019/08/03,04:20,0.753,1.080,0.735,1.300,0.953,0.429,0.742,0.701,��,0.6,��
2019/08/03,04:30,0.753,1.076,0.735,1.297,0.952,0.430,0.743,0.702,��쐼,1.1,��
2019/08/03,04:40,0.753,1.078,0.733,1.298,0.953,0.430,0.742,0.702,�쐼,1.4,��
2019/08/03,04:50,0.752,1.077,0.735,1.298,0.951,0.430,0.743,0.701,���쐼,1.5,��
2019/08/03,05:00,0.753,1.076,0.737,1.297,0.952,0.431,0.741,0.703,���쐼,1.2,��
2019/08/03,05:10,0.752,1.079,0.734,1.297,0.952,0.429,0.742,0.701,�쐼,1.7,��
2019/08/03,05:20,0.752,1.079,0.734,1.296,0.952,0.431,0.743,0.704,�쐼,2.0,��
2019/08/03,05:30,0.751,1.079,0.737,1.298,0.951,0.431,0.744,0.702,�쐼,1.7,��
2019/08/03,05:40,0.753,1.078,0.734,1.299,0.952,0.431,0.743,0.702,�쐼,1.2,��
2019/08/03,05:50,0.752,1.079,0.733,1.295,0.955,0.429,0.743,0.702,��쐼,1.2,��
2019/08/03,06:00,0.751,1.080,0.734,1.297,0.952,0.430,0.743,0.702,���쐼,0.6,��
2019/08/03,06:10,0.752,1.080,0.733,1.296,0.950,0.430,0.743,0.702,��,0.8,��
2019/08/03,06:20,0.754,1.079,0.732,1.296,0.951,0.429,0.744,0.704,��,1.1,��
2019/08/03,06:30,0.752,1.076,0.735,1.299,0.952,0.431,0.742,0.702,���k��,0.8,��
2019/08/03,06:40,0.752,1.078,0.736,1.295,0.953,0.430,0.742,0.702,�k��,1.4,��
2019/08/03,06:50,0.754,1.080,0.735,1.298,0.952,0.430,0.744,0.702,�k�k��,1.2,��
2019/08/03,07:00,0.753,1.079,0.734,1.295,0.952,0.430,0.744,0.703,�k,2.0,��
2019/08/03,07:10,0.756,1.079,0.736,1.297,0.953,0.430,0.744,0.704,�k,2.5,��
2019/08/03,07:20,0.756,1.078,0.735,1.298,0.955,0.432,0.744,0.704,�k,1.7,��
2019/08/03,07:30,0.754,1.078,0.735,1.299,0.954,0.431,0.744,0.703,�k,1.5,��
2019/08/03,07:40,0.755,1.077,0.738,1.296,0.952,0.432,0.744,0.703,�k�k��,1.7,��
2019/08/03,07:50,0.754,1.076,0.733,1.296,0.954,0.430,0.744,0.702,�k�k��,2.2,��
2019/08/03,08:00,0.756,1.076,0.733,1.294,0.951,0.431,0.745,0.704,�k�k��,0.9,��
2019/08/03,08:10,0.755,1.073,0.733,1.296,0.951,0.432,0.743,0.703,�k�k��,1.7,��
2019/08/03,08:20,0.755,1.076,0.732,1.296,0.953,0.430,0.744,0.705,�k�k��,2.3,��
2019/08/03,08:30,0.756,1.077,0.733,1.297,0.952,0.429,0.745,0.702,�k�k��,2.3,��
2019/08/03,08:40,0.756,1.076,0.735,1.301,0.954,0.431,0.747,0.703,�k�k��,2.3,��
2019/08/03,08:50,0.757,1.076,0.732,1.298,0.955,0.431,0.746,0.702,�k��,2.6,��
2019/08/03,09:00,0.756,1.076,0.734,1.300,0.952,0.430,0.746,0.703,�k��,3.2,��
2019/08/03,09:10,0.756,1.076,0.735,1.297,0.955,0.430,0.743,0.702,�k��,4.0,��
2019/08/03,09:20,0.756,1.076,0.731,1.298,0.954,0.429,0.746,0.702,�k��,3.8,��
2019/08/03,09:30,0.756,1.073,0.735,1.298,0.956,0.429,0.745,0.704,�k��,3.4,��
2019/08/03,09:40,0.756,1.076,0.735,1.301,0.954,0.429,0.745,0.702,�k��,3.6,��
2019/08/03,09:50,0.754,1.076,0.734,1.301,0.955,0.430,0.745,0.703,���k��,3.3,��
2019/08/03,10:00,0.756,1.080,0.734,1.299,0.958,0.429,0.742,0.701,���k��,3.3,��
2019/08/03,10:10,0.756,1.081,0.735,1.298,0.955,0.429,0.742,0.703,��,3.0,��
2019/08/03,10:20,0.756,1.079,0.735,1.298,0.955,0.429,0.743,0.700,��,3.1,��
2019/08/03,10:30,0.758,1.081,0.736,1.301,0.957,0.430,0.743,0.701,��,3.1,��
2019/08/03,10:40,0.757,1.083,0.735,1.300,0.957,0.429,0.745,0.703,��,3.4,��
2019/08/03,10:50,0.757,1.082,0.735,1.301,0.955,0.429,0.741,0.703,���쓌,3.3,��
2019/08/03,11:00,0.758,1.083,0.735,1.301,0.957,0.429,0.744,0.702,���쓌,2.9,��
2019/08/03,11:10,0.756,1.081,0.734,1.299,0.957,0.430,0.744,0.703,�쓌,2.9,��
2019/08/03,11:20,0.757,1.083,0.738,1.299,0.957,0.429,0.744,0.702,�쓌,3.7,��
2019/08/03,11:30,0.757,1.083,0.738,1.298,0.958,0.430,0.745,0.703,�쓌,4.2,��
2019/08/03,11:40,0.757,1.082,0.739,1.297,0.960,0.430,0.745,0.704,�쓌,4.4,��
2019/08/03,11:50,0.758,1.080,0.737,1.300,0.959,0.431,0.744,0.703,�쓌,4.1,��
2019/08/03,12:00,0.758,1.083,0.738,1.299,0.960,0.429,0.745,0.703,��쓌,3.9,��
2019/08/03,12:10,0.755,1.084,0.738,1.299,0.957,0.430,0.744,0.702,��쓌,3.7,��
2019/08/03,12:20,0.758,1.085,0.738,1.301,0.959,0.429,0.743,0.702,��쓌,4.6,��
2019/08/03,12:30,0.757,1.084,0.742,1.301,0.960,0.431,0.746,0.703,��쓌,4.9,��
2019/08/03,12:40,0.758,1.086,0.740,1.300,0.961,0.431,0.744,0.705,��쓌,4.4,��
2019/08/03,12:50,0.759,1.086,0.741,1.302,0.961,0.430,0.746,0.705,��쓌,4.7,��
2019/08/03,13:00,0.758,1.086,0.741,1.299,0.962,0.433,0.748,0.706,��쓌,5.5,��
2019/08/03,13:10,0.759,1.083,0.740,1.304,0.962,0.432,0.744,0.704,��쓌,4.5,��
2019/08/03,13:20,0.759,1.083,0.741,1.299,0.962,0.430,0.746,0.704,�쓌,4.6,��
2019/08/03,13:30,0.759,1.082,0.742,1.300,0.963,0.431,0.747,0.707,��쓌,4.7,��
2019/08/03,13:40,0.759,1.082,0.740,1.302,0.961,0.431,0.748,0.706,��쓌,4.4,��
2019/08/03,13:50,0.756,1.084,0.738,1.302,0.963,0.429,0.746,0.705,��쓌,3.9,��
2019/08/03,14:00,0.761,1.086,0.739,1.300,0.963,0.432,0.747,0.706,��쓌,2.9,��
2019/08/03,14:10,0.761,1.084,0.740,1.300,0.962,0.431,0.746,0.706,�쓌,3.9,��
2019/08/03,14:20,0.758,1.085,0.738,1.299,0.962,0.431,0.748,0.707,�쓌,3.9,��
2019/08/03,14:30,0.760,1.086,0.740,1.300,0.962,0.432,0.749,0.705,�쓌,3.4,��
2019/08/03,14:40,0.759,1.087,0.741,1.301,0.962,0.431,0.747,0.706,�쓌,3.6,��
2019/08/03,14:50,0.761,1.086,0.741,1.301,0.962,0.432,0.747,0.707,�쓌,2.9,��
2019/08/03,15:00,0.760,1.087,0.742,1.305,0.963,0.431,0.747,0.705,�쓌,2.3,��
2019/08/03,15:10,0.761,1.086,0.742,1.302,0.965,0.432,0.749,0.705,-,CALM,��
2019/08/03,15:20,0.760,1.087,0.743,1.303,0.963,0.433,0.748,0.704,-,CALM,��
2019/08/03,15:30,0.760,1.087,0.741,1.302,0.966,0.433,0.748,0.705,��,1.5,��
2019/08/03,15:40,0.759,1.088,0.740,1.304,0.964,0.432,0.747,0.704,���쓌,2.2,��
2019/08/03,15:50,0.761,1.085,0.742,1.305,0.967,0.433,0.745,0.704,���쓌,2.6,��
2019/08/03,16:00,0.759,1.086,0.740,1.304,0.966,0.431,0.745,0.703,�쓌,2.6,��
2019/08/03,16:10,0.759,1.088,0.741,1.306,0.967,0.430,0.745,0.703,�쓌,3.3,��
2019/08/03,16:20,0.760,1.086,0.740,1.306,0.961,0.430,0.745,0.704,��쓌,4.1,��
2019/08/03,16:30,0.759,1.089,0.740,1.306,0.964,0.430,0.746,0.704,��쓌,3.4,��
2019/08/03,16:40,0.760,1.088,0.740,1.305,0.963,0.428,0.746,0.704,��쓌,4.0,��
2019/08/03,16:50,0.758,1.088,0.739,1.307,0.963,0.429,0.744,0.704,��쓌,4.0,��
2019/08/03,17:00,0.757,1.087,0.741,1.306,0.964,0.429,0.744,0.703,��쓌,4.3,��
2019/08/03,17:10,0.758,1.086,0.739,1.308,0.964,0.431,0.746,0.703,��쓌,4.8,��
2019/08/03,17:20,0.760,1.086,0.739,1.307,0.965,0.430,0.744,0.703,��쓌,3.6,��
2019/08/03,17:30,0.758,1.087,0.738,1.307,0.962,0.429,0.745,0.702,��,4.6,��
2019/08/03,17:40,0.759,1.088,0.741,1.309,0.964,0.429,0.745,0.704,��,4.6,��
2019/08/03,17:50,0.757,1.086,0.741,1.304,0.965,0.431,0.744,0.704,��,2.6,��
2019/08/03,18:00,0.758,1.086,0.740,1.310,0.964,0.429,0.745,0.704,��,3.4,��
2019/08/03,18:10,0.757,1.086,0.740,1.305,0.962,0.429,0.745,0.701,��,2.3,��
2019/08/03,18:20,0.757,1.085,0.741,1.306,0.961,0.430,0.745,0.702,��,1.5,��
2019/08/03,18:30,0.756,1.086,0.739,1.304,0.962,0.429,0.744,0.704,��쓌,1.7,��
2019/08/03,18:40,0.758,1.083,0.740,1.303,0.964,0.430,0.744,0.704,��,0.9,��
2019/08/03,18:50,0.758,1.088,0.740,1.304,0.963,0.429,0.744,0.702,��,1.2,��
2019/08/03,19:00,0.756,1.085,0.740,1.303,0.965,0.430,0.744,0.704,��쓌,1.5,��
2019/08/03,19:10,0.755,1.086,0.741,1.305,0.964,0.429,0.744,0.702,��쓌,1.7,��
2019/08/03,19:20,0.754,1.087,0.741,1.304,0.963,0.429,0.745,0.702,��쓌,1.7,��
2019/08/03,19:30,0.757,1.087,0.739,1.303,0.964,0.429,0.744,0.703,��,2.0,��
2019/08/03,19:40,0.756,1.088,0.740,1.305,0.965,0.429,0.744,0.702,��,0.9,��
2019/08/03,19:50,0.755,1.086,0.739,1.306,0.965,0.430,0.746,0.705,�쐼,0.6,��
2019/08/03,20:00,0.758,1.088,0.741,1.304,0.964,0.430,0.744,0.704,�쐼,0.6,��
2019/08/03,20:10,0.759,1.088,0.742,1.303,0.964,0.430,0.744,0.704,�쐼,0.6,��
2019/08/03,20:20,0.758,1.088,0.740,1.307,0.966,0.429,0.746,0.703,���k��,1.2,��
2019/08/03,20:30,0.756,1.088,0.740,1.306,0.965,0.431,0.745,0.703,�k��,1.5,��
2019/08/03,20:40,0.757,1.088,0.740,1.305,0.965,0.430,0.743,0.703,�k��,1.5,��
2019/08/03,20:50,0.758,1.088,0.742,1.305,0.965,0.429,0.745,0.703,�k�k��,1.7,��
2019/08/03,21:00,0.758,1.088,0.742,1.305,0.964,0.431,0.744,0.702,�k�k��,1.7,��
2019/08/03,21:10,0.758,1.088,0.741,1.307,0.964,0.431,0.743,0.705,�k�k��,1.7,��
2019/08/03,21:20,0.759,1.088,0.741,1.306,0.966,0.431,0.745,0.705,�k��,1.5,��
2019/08/03,21:30,0.758,1.087,0.741,1.306,0.965,0.431,0.745,0.702,�k�k��,1.7,��
2019/08/03,21:40,0.757,1.088,0.741,1.307,0.965,0.431,0.743,0.705,�k,1.2,��
2019/08/03,21:50,0.760,1.087,0.742,1.305,0.963,0.433,0.744,0.703,�k�k��,1.5,��
2019/08/03,22:00,0.758,1.089,0.740,1.307,0.964,0.430,0.745,0.705,�k��,1.7,��
2019/08/03,22:10,0.760,1.087,0.741,1.308,0.962,0.432,0.746,0.705,�k��,1.5,��
2019/08/03,22:20,0.761,1.085,0.743,1.307,0.965,0.432,0.745,0.705,�k��,1.2,��
2019/08/03,22:30,0.759,1.087,0.741,1.308,0.965,0.432,0.746,0.704,-,CALM,��
2019/08/03,22:40,0.759,1.087,0.742,1.306,0.964,0.432,0.746,0.704,-,CALM,��
2019/08/03,22:50,0.760,1.087,0.743,1.307,0.965,0.431,0.744,0.704,���쐼,0.8,��
2019/08/03,23:00,0.759,1.088,0.742,1.308,0.962,0.432,0.746,0.704,��쐼,0.6,��
2019/08/03,23:10,0.759,1.089,0.741,1.309,0.964,0.431,0.744,0.703,��,0.8,��
2019/08/03,23:20,0.758,1.088,0.744,1.309,0.961,0.432,0.746,0.704,��,1.1,��
2019/08/03,23:30,0.760,1.088,0.742,1.307,0.963,0.430,0.746,0.704,��,1.2,��
2019/08/03,23:40,0.758,1.089,0.743,1.307,0.963,0.431,0.746,0.706,��,1.4,��
2019/08/03,23:50,0.758,1.087,0.740,1.308,0.964,0.430,0.746,0.704,���k��,1.4,��
